User: anonymous   Login
Location: Unspecified
(0.0000°N, 0.0000°E)
Time: 00:03:14
(UTC+00:00)
Language:

STARLINK-36106 - Orbit

View from above orbital plane
View from above orbital plane
View from above satellite
View from above satellite

Ground track
Ground track

The orbit is defined by the following mean orbital elements,

1 67018U          26145.34790385 +.00000000 +00000-0 +25560-3 0 00003
2 67018  70.0008 261.0435 0003258 269.6579  90.4207 14.98338691    06
Epoch (UTC): 25 May 2026 08:20:58
Eccentricity: 0.0003258
inclination: 70.0008°
perigee height: 570 km
apogee height: 574 km
right ascension of ascending node: 261.0435°
argument of perigee: 269.6579°
revolutions per day: 14.98338691
mean anomaly at epoch: 90.4207°

The dashed part of the orbit path shows where the satellite is in the earth's shadow,  

DLR